Hourly Weather Sudkovychi

Today, 22 January, Friday

Time Temperature Precipitation Wind Pressure Humidity
00:00 +2°C° 0 mm 5 mps 732 mmHg 82%
01:00 +2°C° 0 mm 5 mps 731 mmHg 82%
02:00 +2°C° 0 mm 6 mps 731 mmHg 81%
03:00 +2°C° 0 mm 5 mps 731 mmHg 81%
04:00 +2°C° 0 mm 5 mps 730 mmHg 81%
05:00 +2°C° 0 mm 5 mps 730 mmHg 81%
06:00 +2°C° 0 mm 5 mps 730 mmHg 82%
07:00 +2°C° 0 mm 5 mps 730 mmHg 82%
08:00 +3°C° 0 mm 4 mps 729 mmHg 83%
09:00 +3°C° 0 mm 4 mps 729 mmHg 83%
10:00 +3°C° 0 mm 5 mps 729 mmHg 84%
11:00 +3°C° 0 mm 5 mps 729 mmHg 85%
12:00 +5°C° 0 mm 5 mps 729 mmHg 84%
13:00 +4°C° 0 mm 6 mps 728 mmHg 82%
14:00 +4°C° 0 mm 6 mps 728 mmHg 81%
15:00 +4°C° 0 mm 6 mps 728 mmHg 81%
16:00 +4°C° 0 mm 6 mps 727 mmHg 81%
17:00 +3°C° 0 mm 6 mps 727 mmHg 81%
18:00 +3°C° 0 mm 6 mps 727 mmHg 82%
19:00 +3°C° 0 mm 6 mps 727 mmHg 83%
20:00 +3°C° 0 mm 5 mps 727 mmHg 84%
21:00 +3°C° 0.1 mm 6 mps 727 mmHg 84%
22:00 +4°C° 0.1 mm 6 mps 727 mmHg 85%
23:00 +4°C° 0.1 mm 6 mps 727 mmHg 85%

Tomorrow, 23 January, Saturday

Time Temperature Precipitation Wind Pressure Humidity
00:00 +3°C° 0 mm 6 mps 727 mmHg 85%
01:00 +3°C° 0 mm 5 mps 727 mmHg 85%
02:00 +3°C° 0 mm 5 mps 726 mmHg 85%
03:00 +3°C° 0 mm 5 mps 726 mmHg 85%
04:00 +3°C° 0 mm 5 mps 726 mmHg 85%
05:00 +3°C° 0 mm 5 mps 726 mmHg 85%
06:00 +2°C° 0 mm 5 mps 726 mmHg 86%
07:00 +3°C° 0 mm 4 mps 726 mmHg 86%
08:00 +3°C° 0 mm 4 mps 726 mmHg 87%
09:00 +3°C° 0.1 mm 5 mps 726 mmHg 86%
10:00 +5°C° 0.1 mm 5 mps 725 mmHg 85%
11:00 +5°C° 0.1 mm 6 mps 725 mmHg 85%
12:00 +6°C° 0 mm 5 mps 725 mmHg 82%
13:00 +7°C° 0 mm 5 mps 725 mmHg 80%
14:00 +7°C° 0 mm 5 mps 725 mmHg 77%
15:00 +6°C° 0 mm 5 mps 724 mmHg 79%
16:00 +6°C° 0 mm 4 mps 724 mmHg 80%
17:00 +5°C° 0 mm 4 mps 724 mmHg 81%
18:00 +5°C° 0 mm 4 mps 724 mmHg 83%
19:00 +4°C° 0 mm 4 mps 723 mmHg 84%
20:00 +4°C° 0 mm 4 mps 723 mmHg 85%
21:00 +4°C° 0 mm 3 mps 723 mmHg 85%
22:00 +4°C° 0 mm 3 mps 723 mmHg 84%
23:00 +4°C° 0 mm 3 mps 723 mmHg 84%

Day after tomorrow, 24 January, Sunday

Time Temperature Precipitation Wind Pressure Humidity
00:00 +4°C° 0 mm 3 mps 723 mmHg 86%
01:00 +5°C° 0 mm 2 mps 722 mmHg 87%
02:00 +4°C° 0 mm 2 mps 722 mmHg 88%
03:00 +4°C° 0 mm 2 mps 722 mmHg 89%
04:00 +4°C° 0 mm 2 mps 721 mmHg 90%
05:00 +4°C° 0 mm 2 mps 721 mmHg 90%
06:00 +4°C° 0.4 mm 2 mps 721 mmHg 92%
07:00 +4°C° 0.4 mm 2 mps 721 mmHg 93%
08:00 +4°C° 0.4 mm 2 mps 721 mmHg 95%
09:00 +4°C° 0.5 mm 2 mps 721 mmHg 94%
10:00 +4°C° 0.5 mm 2 mps 721 mmHg 93%
11:00 +4°C° 0.5 mm 2 mps 721 mmHg 93%
12:00 +5°C° 0.1 mm 2 mps 721 mmHg 90%
13:00 +4°C° 0.1 mm 3 mps 721 mmHg 87%
14:00 +5°C° 0.1 mm 3 mps 721 mmHg 84%
15:00 +4°C° 0.1 mm 3 mps 721 mmHg 87%
16:00 +3°C° 0.1 mm 3 mps 721 mmHg 90%
17:00 +2°C° 0.1 mm 3 mps 721 mmHg 92%
18:00 +3°C° 0.1 mm 2 mps 722 mmHg 93%
19:00 +2°C° 0.1 mm 2 mps 722 mmHg 94%
20:00 +2°C° 0.1 mm 2 mps 723 mmHg 95%
21:00 +2°C° 0.2 mm 2 mps 723 mmHg 96%
22:00 +1°C° 0.2 mm 2 mps 723 mmHg 96%
23:00 +2°C° 0.2 mm 1 mps 724 mmHg 96%

25 January, Monday

Time Temperature Precipitation Wind Pressure Humidity
00:00 +2°C° 0.1 mm 1 mps 724 mmHg 96%
01:00 +2°C° 0.1 mm 1 mps 724 mmHg 96%
02:00 +1°C° 0.1 mm 1 mps 724 mmHg 96%
03:00 +1°C° 0.1 mm 1 mps 724 mmHg 96%
04:00 +1°C° 0.1 mm 1 mps 724 mmHg 97%
05:00 +1°C° 0.1 mm 1 mps 724 mmHg 97%
06:00 -1°C° 0.2 mm 2 mps 724 mmHg 97%
07:00 -2°C° 0.2 mm 2 mps 724 mmHg 97%
08:00 -2°C° 0.2 mm 2 mps 724 mmHg 97%
09:00 -2°C° 0.6 mm 3 mps 724 mmHg 97%
10:00 -3°C° 0.6 mm 4 mps 724 mmHg 96%
11:00 -2°C° 0.6 mm 4 mps 724 mmHg 96%
12:00 -2°C° 1.3 mm 5 mps 723 mmHg 97%
13:00 -3°C° 1.3 mm 6 mps 723 mmHg 97%
14:00 -3°C° 1.3 mm 7 mps 722 mmHg 97%
15:00 -4°C° 1.8 mm 7 mps 722 mmHg 97%
16:00 -5°C° 1.8 mm 8 mps 722 mmHg 96%
17:00 -5°C° 1.8 mm 8 mps 722 mmHg 96%
18:00 -5°C° 2.1 mm 9 mps 722 mmHg 96%
19:00 -5°C° 2.1 mm 9 mps 722 mmHg 96%
20:00 -5°C° 2.1 mm 10 mps 722 mmHg 95%
21:00 -7°C° 1.7 mm 10 mps 722 mmHg 95%
22:00 -7°C° 1.7 mm 10 mps 722 mmHg 95%
23:00 -7°C° 1.7 mm 10 mps 722 mmHg 95%

26 January, Tuesday

Time Temperature Precipitation Wind Pressure Humidity
00:00 -7°C° 1.2 mm 10 mps 723 mmHg 94%
01:00 -7°C° 1.2 mm 10 mps 723 mmHg 94%
02:00 -7°C° 1.2 mm 10 mps 723 mmHg 93%
03:00 -7°C° 0.5 mm 10 mps 724 mmHg 91%
04:00 -7°C° 0.5 mm 10 mps 724 mmHg 90%
05:00 -7°C° 0.5 mm 10 mps 724 mmHg 88%
06:00 -7°C° 0.1 mm 10 mps 725 mmHg 88%
07:00 -6°C° 0.1 mm 9 mps 725 mmHg 88%
08:00 -6°C° 0.1 mm 9 mps 726 mmHg 89%
09:00 -7°C° 0.1 mm 10 mps 726 mmHg 89%
10:00 -7°C° 0.1 mm 10 mps 727 mmHg 89%
11:00 -7°C° 0.1 mm 10 mps 727 mmHg 90%
12:00 -7°C° 0.1 mm 10 mps 727 mmHg 89%
13:00 -7°C° 0.1 mm 10 mps 728 mmHg 88%
14:00 -5°C° 0.1 mm 9 mps 728 mmHg 87%
15:00 -5°C° 0 mm 9 mps 728 mmHg 87%
16:00 -6°C° 0 mm 8 mps 729 mmHg 87%
17:00 -6°C° 0 mm 8 mps 729 mmHg 88%
18:00 -6°C° 0 mm 7 mps 730 mmHg 88%
19:00 -6°C° 0 mm 7 mps 730 mmHg 89%
20:00 -5°C° 0 mm 6 mps 730 mmHg 89%
21:00 -5°C° 0.1 mm 6 mps 731 mmHg 90%
22:00 -5°C° 0.1 mm 6 mps 731 mmHg 91%
23:00 -5°C° 0.1 mm 6 mps 731 mmHg 92%

27 January, Wednesday

Time Temperature Precipitation Wind Pressure Humidity
00:00 -5°C° 0.1 mm 6 mps 731 mmHg 91%
01:00 -5°C° 0.1 mm 6 mps 731 mmHg 90%
02:00 -5°C° 0.1 mm 6 mps 732 mmHg 89%
03:00 -6°C° 0 mm 6 mps 732 mmHg 88%
04:00 -6°C° 0 mm 6 mps 732 mmHg 87%
05:00 -6°C° 0 mm 5 mps 732 mmHg 87%
06:00 -7°C° 0 mm 5 mps 732 mmHg 85%
07:00 -7°C° 0 mm 4 mps 732 mmHg 83%
08:00 -8°C° 0 mm 4 mps 732 mmHg 82%
09:00 -7°C° 0 mm 4 mps 732 mmHg 81%
10:00 -5°C° 0 mm 4 mps 732 mmHg 81%
11:00 -4°C° 0 mm 4 mps 733 mmHg 80%
12:00 -3°C° 0 mm 4 mps 732 mmHg 81%
13:00 -3°C° 0 mm 4 mps 732 mmHg 81%
14:00 -2°C° 0 mm 4 mps 732 mmHg 82%
15:00 -2°C° 0 mm 3 mps 732 mmHg 83%
16:00 -5°C° 0 mm 3 mps 732 mmHg 84%
17:00 -6°C° 0 mm 3 mps 732 mmHg 84%
18:00 -6°C° 0 mm 3 mps 732 mmHg 84%
19:00 -7°C° 0 mm 3 mps 733 mmHg 84%
20:00 -8°C° 0 mm 3 mps 733 mmHg 84%
21:00 -7°C° 0 mm 3 mps 733 mmHg 84%
22:00 -7°C° 0 mm 3 mps 733 mmHg 84%
23:00 -7°C° 0 mm 3 mps 733 mmHg 84%
Show more